TimeEDT,TemperatureF,Dew PointF,Humidity,Sea Level PressureIn,VisibilityMPH,Wind Direction,Wind SpeedMPH,Gust SpeedMPH,PrecipitationIn,Events,Conditions,WindDirDegrees,DateUTC
12:53 AM,55.0,52.0,89,29.97,10.0,Calm,Calm,-,N/A,,Clear,0,2012-10-02 04:53:00
1:53 AM,57.0,53.1,87,29.97,10.0,Calm,Calm,-,N/A,,Mostly Cloudy,0,2012-10-02 05:53:00
2:53 AM,57.9,54.0,87,29.99,10.0,Calm,Calm,-,N/A,,Mostly Cloudy,0,2012-10-02 06:53:00
3:53 AM,57.9,54.0,87,29.99,10.0,Calm,Calm,-,N/A,,Overcast,0,2012-10-02 07:53:00
4:53 AM,59.0,54.0,83,30.00,10.0,Calm,Calm,-,N/A,,Overcast,0,2012-10-02 08:53:00
5:53 AM,59.0,54.0,83,30.01,10.0,Calm,Calm,-,N/A,,Overcast,0,2012-10-02 09:53:00
6:53 AM,59.0,54.0,83,30.02,10.0,Calm,Calm,-,N/A,,Overcast,0,2012-10-02 10:53:00
7:53 AM,60.1,54.0,80,30.03,10.0,Calm,Calm,-,N/A,,Overcast,0,2012-10-02 11:53:00
8:53 AM,63.0,55.0,75,30.04,10.0,Calm,Calm,-,N/A,,Overcast,0,2012-10-02 12:53:00
9:53 AM,64.9,55.9,73,30.04,10.0,Calm,Calm,-,N/A,,Overcast,0,2012-10-02 13:53:00
10:53 AM,69.1,59.0,70,30.04,10.0,ESE,5.8,-,N/A,,Overcast,110,2012-10-02 14:53:00
11:53 AM,69.1,57.9,68,30.02,10.0,ESE,5.8,-,N/A,,Scattered Clouds,120,2012-10-02 15:53:00
11:54 AM,69.8,57.2,64,30.02,10.0,ESE,6.9,-,N/A,,Scattered Clouds,110,2012-10-02 15:54:00
11:56 AM,69.8,57.2,64,30.02,10.0,ESE,5.8,-,N/A,,Overcast,120,2012-10-02 15:56:00
12:53 PM,69.1,57.9,68,30.04,10.0,Calm,Calm,-,0.00,,Overcast,0,2012-10-02 16:53:00
1:53 PM,66.9,61.0,81,30.04,2.5,Calm,Calm,-,0.04,Rain,Rain,0,2012-10-02 17:53:00
2:40 PM,64.4,59.0,83,30.03,4.0,Calm,Calm,-,0.10,Rain,Light Rain,0,2012-10-02 18:40:00
2:53 PM,64.0,57.9,80,30.02,4.0,ESE,3.5,-,0.10,Rain,Light Rain,110,2012-10-02 18:53:00
3:53 PM,63.0,59.0,87,30.01,9.0,Calm,Calm,-,0.05,Rain,Light Rain,0,2012-10-02 19:53:00
4:01 PM,62.6,59.0,88,30.02,9.0,East,4.6,-,0.01,Rain,Light Rain,90,2012-10-02 20:01:00
4:26 PM,62.6,57.2,82,30.01,10.0,East,4.6,-,0.02,Rain,Light Rain,80,2012-10-02 20:26:00
4:53 PM,62.1,57.9,86,30.00,10.0,NE,4.6,-,0.03,,Overcast,40,2012-10-02 20:53:00
5:23 PM,62.6,57.2,82,30.01,10.0,NE,3.5,-,0.00,Rain,Light Rain,50,2012-10-02 21:23:00
5:53 PM,62.1,59.0,90,30.01,8.0,NE,3.5,-,0.00,Rain,Light Rain,40,2012-10-02 21:53:00
6:17 PM,62.6,57.2,82,30.01,4.0,North,3.5,-,0.04,Rain,Light Rain,10,2012-10-02 22:17:00
6:53 PM,61.0,57.9,90,30.01,9.0,ENE,3.5,-,0.04,Rain,Light Rain,60,2012-10-02 22:53:00
7:11 PM,60.8,57.2,88,30.01,4.0,NNE,3.5,-,0.07,Rain,Heavy Rain,20,2012-10-02 23:11:00
7:40 PM,60.8,59.0,94,30.01,6.0,Variable,3.5,-,0.18,Rain,Light Rain,0,2012-10-02 23:40:00
7:53 PM,61.0,59.0,93,30.01,10.0,ENE,4.6,-,0.18,,Overcast,60,2012-10-02 23:53:00
8:21 PM,62.6,59.0,88,30.01,9.0,North,4.6,-,0.00,,Overcast,360,2012-10-03 00:21:00
8:53 PM,62.1,60.1,93,30.01,9.0,NE,3.5,-,0.01,Rain,Light Rain,40,2012-10-03 00:53:00
9:53 PM,62.1,60.1,93,30.02,7.0,NNE,4.6,-,0.01,,Overcast,30,2012-10-03 01:53:00
10:53 PM,63.0,61.0,93,30.01,9.0,NNE,4.6,-,0.00,,Overcast,20,2012-10-03 02:53:00
11:53 PM,62.1,60.1,93,30.01,7.0,North,8.1,-,0.01,,Overcast,10,2012-10-03 03:53:00